Weather History for Chester, CT

Change the Weather History Date:

Monday, November 11, 2013

  Actual Average (KHVN) Record (KHVN)
Temperature  
Mean Temperature 44 °F -  
Max Temperature 51 °F 50 °F 64 °F (1970)
Min Temperature 37 °F 36 °F 25 °F (2003)
Degree Days  
Heating Degree Days 21    
Moisture  
Dew Point 30 °F    
Average Humidity 52    
Maximum Humidity 70    
Minimum Humidity 35    
Precipitation  
Precipitation 0.00 in - - ()
Sea Level Pressure  
Sea Level Pressure 30.05 in    
Wind  
Wind Speed 7 mph (West)    
Max Wind Speed 15 mph    
Max Gust Speed 28 mph    
Visibility 10 miles    
Events      
Averages and records for this station are not official NWS values.
T = Trace of Precipitation, MM = Missing Value Source: NWS Daily Summary

Daily Weather History Graph

Daily Weather History Graph

Search for Another Location

Airport:

Trip Planner

Search our weather history database for the weather conditions in past years. The results will help you decide how hot, cold, wet, or windy it might be!

Date:

Astronomy

Nov. 11, 2013 Rise Set
Actual Time 6:33 AM EST 4:33 PM EST
Civil Twilight 6:04 AM EST 5:03 PM EST
Nautical Twilight 5:31 AM EST 5:36 PM EST
Astronomical Twilight 4:58 AM EST 6:08 PM EST
Moon 1:16 PM EST (11/11) 12:11 AM EST (11/11)
Length of Visible Light 10h 58m
Length of Day
9h 59m
Waxing Gibbous, 66% of the Moon is Illuminated
Nov 11
Waxing Gibbous
Nov 17
Full
Nov 25
Last Quarter
Dec 2
New
Dec 9
First Quarter

Hourly Weather History & Observations

Time (EST) Temp. Windchill Dew Point Humidity Pressure Visibility Wind Dir Wind Speed Gust Speed Precip Events Conditions
12:15 AM 46.4 °F 44.3 °F 30.2 °F 53% 29.97 in 10.0 mi WNW 4.6 mph - N/A   Overcast
12:35 AM 46.4 °F 45.2 °F 30.2 °F 53% 29.97 in 10.0 mi WNW 3.5 mph - N/A   Overcast
12:55 AM 46.4 °F 41.9 °F 30.2 °F 53% 29.98 in 10.0 mi NW 9.2 mph - N/A   Overcast
1:15 AM 46.4 °F 41.1 °F 28.4 °F 50% 29.98 in 10.0 mi WNW 11.5 mph 16.1 mph N/A   Overcast
1:35 AM 44.6 °F 38.8 °F 30.2 °F 57% 30.00 in 10.0 mi NNW 11.5 mph - N/A   Mostly Cloudy
1:55 AM 44.6 °F 40.7 °F 32.0 °F 61% 30.01 in 10.0 mi NW 6.9 mph 17.3 mph N/A   Partly Cloudy
2:15 AM 42.8 °F 36.2 °F 30.2 °F 61% 30.01 in 10.0 mi WNW 12.7 mph 21.9 mph N/A   Clear
2:35 AM 42.8 °F 35.8 °F 30.2 °F 61% 30.02 in 10.0 mi NW 13.8 mph 27.6 mph N/A   Partly Cloudy
2:55 AM 42.8 °F 35.8 °F 30.2 °F 61% 30.03 in 10.0 mi NW 13.8 mph 20.7 mph N/A   Mostly Cloudy
3:15 AM 42.8 °F 35.4 °F 28.4 °F 57% 30.03 in 10.0 mi NW 15.0 mph 24.2 mph N/A   Mostly Cloudy
3:35 AM 42.8 °F 35.4 °F 28.4 °F 57% 30.04 in 10.0 mi NW 15.0 mph 27.6 mph N/A   Partly Cloudy
3:55 AM 42.8 °F 38.0 °F 28.4 °F 57% 30.06 in 10.0 mi NW 8.1 mph 20.7 mph N/A   Clear
4:15 AM 41.0 °F 37.1 °F 26.6 °F 57% 30.07 in 10.0 mi NNW 5.8 mph - N/A   Mostly Cloudy
4:35 AM 41.0 °F 37.1 °F 26.6 °F 57% 30.08 in 10.0 mi North 5.8 mph - N/A   Mostly Cloudy
4:55 AM 41.0 °F 38.0 °F 26.6 °F 57% 30.09 in 10.0 mi WNW 4.6 mph - N/A   Scattered Clouds
5:15 AM 41.0 °F - 26.6 °F 57% 30.10 in 10.0 mi Calm Calm - N/A   Scattered Clouds
5:35 AM 39.2 °F 35.9 °F 26.6 °F 61% 30.10 in 10.0 mi WNW 4.6 mph - N/A   Partly Cloudy
5:55 AM 39.2 °F 35.9 °F 28.4 °F 65% 30.11 in 10.0 mi West 4.6 mph - N/A   Clear
6:15 AM 37.4 °F 33.8 °F 28.4 °F 70% 30.11 in 10.0 mi West 4.6 mph - N/A   Clear
6:35 AM 39.2 °F - 28.4 °F 65% 30.12 in 10.0 mi Calm Calm - N/A   Clear
6:55 AM 39.2 °F - 28.4 °F 65% 30.13 in 10.0 mi Calm Calm - N/A   Clear
7:15 AM 39.2 °F - 28.4 °F 65% 30.14 in 10.0 mi Calm Calm - N/A   Clear
7:35 AM 39.2 °F - 28.4 °F 65% 30.14 in 10.0 mi Calm Calm - N/A   Clear
7:55 AM 41.0 °F 39.0 °F 28.4 °F 61% 30.15 in 10.0 mi NNW 3.5 mph - N/A   Clear
8:15 AM 42.8 °F 41.1 °F 28.4 °F 57% 30.15 in 10.0 mi NW 3.5 mph - N/A   Clear
8:35 AM 44.6 °F 41.4 °F 28.4 °F 53% 30.16 in 10.0 mi West 5.8 mph - N/A   Clear
8:55 AM 44.6 °F 40.2 °F 28.4 °F 53% 30.15 in 10.0 mi NW 8.1 mph 18.4 mph N/A   Clear
9:15 AM 44.6 °F 41.4 °F 28.4 °F 53% 30.14 in 10.0 mi WNW 5.8 mph - N/A   Clear
9:35 AM 44.6 °F 40.7 °F 28.4 °F 53% 30.16 in 10.0 mi WNW 6.9 mph 17.3 mph N/A   Clear
9:55 AM 44.6 °F 40.7 °F 28.4 °F 53% 30.15 in 10.0 mi NW 6.9 mph - N/A   Clear
10:15 AM 44.6 °F 39.7 °F 28.4 °F 53% 30.14 in 10.0 mi NNW 9.2 mph - N/A   Clear
10:35 AM 46.4 °F 43.5 °F 28.4 °F 50% 30.13 in 10.0 mi WNW 5.8 mph - N/A   Partly Cloudy
10:55 AM 46.4 °F 42.4 °F 28.4 °F 50% 30.14 in 10.0 mi NNW 8.1 mph - N/A   Clear
11:15 AM 46.4 °F 41.5 °F 28.4 °F 50% 30.13 in 10.0 mi NNW 10.4 mph - N/A   Clear
11:35 AM 46.4 °F 42.9 °F 28.4 °F 50% 30.12 in 10.0 mi WNW 6.9 mph - N/A   Clear
11:55 AM 48.2 °F - 28.4 °F 46% 30.10 in 10.0 mi WSW 5.8 mph - N/A   Clear
12:15 PM 48.2 °F - 28.4 °F 46% 30.09 in 10.0 mi WNW 6.9 mph - N/A   Clear
12:35 PM 50.0 °F - 28.4 °F 43% 30.08 in 10.0 mi WNW 5.8 mph - N/A   Clear
12:55 PM 51.8 °F - 26.6 °F 38% 30.07 in 10.0 mi South 4.6 mph - N/A   Clear
1:15 PM 51.8 °F - 24.8 °F 35% 30.07 in 10.0 mi SSW 6.9 mph - N/A   Clear
1:35 PM 50.0 °F - 24.8 °F 37% 30.06 in 10.0 mi WSW 5.8 mph - N/A   Partly Cloudy
1:55 PM 50.0 °F - 26.6 °F 40% 30.05 in 10.0 mi WSW 8.1 mph - N/A   Mostly Cloudy
2:15 PM 48.2 °F - 28.4 °F 46% 30.05 in 10.0 mi SW 9.2 mph - N/A   Mostly Cloudy
2:35 PM 48.2 °F - 28.4 °F 46% 30.05 in 10.0 mi SW 4.6 mph 16.1 mph N/A   Mostly Cloudy
2:55 PM 48.2 °F - 30.2 °F 50% 30.05 in 10.0 mi WSW 12.7 mph 16.1 mph N/A   Mostly Cloudy
3:15 PM 48.2 °F - 30.2 °F 50% 30.05 in 10.0 mi West 6.9 mph - N/A   Mostly Cloudy
3:35 PM 48.2 °F - 32.0 °F 54% 30.04 in 10.0 mi SW 12.7 mph 19.6 mph N/A   Overcast
3:55 PM 48.2 °F - 30.2 °F 50% 30.04 in 10.0 mi SW 9.2 mph 18.4 mph N/A   Overcast
4:15 PM 48.2 °F - 30.2 °F 50% 30.03 in 10.0 mi SW 9.2 mph 17.3 mph N/A   Overcast
4:35 PM 48.2 °F - 30.2 °F 50% 30.02 in 10.0 mi WSW 8.1 mph 18.4 mph N/A   Overcast
4:55 PM 48.2 °F - 30.2 °F 50% 30.02 in 10.0 mi SW 5.8 mph 17.3 mph N/A   Overcast
5:15 PM 48.2 °F - 30.2 °F 50% 30.01 in 10.0 mi SW 11.5 mph 17.3 mph N/A   Overcast
5:35 PM 48.2 °F - 30.2 °F 50% 30.01 in 10.0 mi SW 6.9 mph - N/A   Overcast
5:55 PM 48.2 °F - 30.2 °F 50% 30.01 in 10.0 mi SW 9.2 mph 18.4 mph N/A   Overcast
6:15 PM 48.2 °F - 32.0 °F 54% 30.00 in 10.0 mi WSW 9.2 mph 16.1 mph N/A   Overcast
6:35 PM 50.0 °F - 32.0 °F 50% 30.00 in 10.0 mi SW 9.2 mph 18.4 mph N/A   Overcast
6:55 PM 50.0 °F - 32.0 °F 50% 30.00 in 10.0 mi SW 10.4 mph 16.1 mph N/A   Overcast
7:15 PM 50.0 °F - 32.0 °F 50% 30.00 in 10.0 mi WSW 9.2 mph 16.1 mph N/A   Overcast
7:35 PM 50.0 °F - 32.0 °F 50% 29.99 in 10.0 mi WSW 10.4 mph 17.3 mph N/A   Overcast
7:55 PM 51.8 °F - 32.0 °F 47% 29.99 in 10.0 mi SW 6.9 mph - N/A   Overcast
8:15 PM 51.8 °F - 32.0 °F 47% 29.99 in 10.0 mi WSW 9.2 mph 16.1 mph N/A   Overcast
8:35 PM 51.8 °F - 32.0 °F 47% 29.99 in 10.0 mi SW 5.8 mph - N/A   Mostly Cloudy
8:55 PM 51.8 °F - 32.0 °F 47% 29.98 in 10.0 mi SW 10.4 mph - N/A   Mostly Cloudy
9:15 PM 51.8 °F - 32.0 °F 47% 29.98 in 10.0 mi WSW 8.1 mph 16.1 mph N/A   Mostly Cloudy
9:35 PM 51.8 °F - 32.0 °F 47% 29.97 in 10.0 mi SW 10.4 mph 18.4 mph N/A   Overcast
9:55 PM 51.8 °F - 32.0 °F 47% 29.97 in 10.0 mi WSW 9.2 mph 18.4 mph N/A   Overcast
10:15 PM 51.8 °F - 32.0 °F 47% 29.96 in 10.0 mi WSW 6.9 mph 19.6 mph N/A   Overcast
10:35 PM 51.8 °F - 32.0 °F 47% 29.96 in 10.0 mi SW 10.4 mph 16.1 mph N/A   Overcast
10:55 PM 51.8 °F - 32.0 °F 47% 29.95 in 10.0 mi SW 10.4 mph - N/A   Overcast
11:15 PM 51.8 °F - 32.0 °F 47% 29.95 in 10.0 mi SW 8.1 mph - N/A   Mostly Cloudy
11:35 PM 51.8 °F - 33.8 °F 50% 29.95 in 10.0 mi SW 5.8 mph 18.4 mph N/A   Mostly Cloudy
11:55 PM 51.8 °F - 33.8 °F 50% 29.95 in 10.0 mi WSW 5.8 mph - N/A   Mostly Cloudy